Regional Weather Roundup
Issued by NWS

Home | Current Version | Previous Version | Text Only | Print | Product List | Glossary Off
Versions: 1 2 3 4 5 6 7 8 9 10 11 12 13 14 15 16 17 18 19 20 21 22 23 24 25 26 27 28 29 30 31 32 33 34 35 36 37 38 39 40 41 42 43 44 45 46 47 48 49 50

149
ASUS43 KIND 191009
RWRIN

WEATHER ROUNDUP FOR INDIANA
NATIONAL WEATHER SERVICE INDIANAPOLIS IN
600 AM EDT THU APR 19 2018

NOTE: "FAIR" INDICATES FEW OR NO CLOUDS BELOW 12,000 FEET WITH NO
SIGNIFICANT WEATHER AND/OR OBSTRUCTIONS TO VISIBILITY.

* - STATION DOES NOT REPORT WEATHER SUCH AS PRECIPITATION OR FOG.

+ - STATION NOT QUALITY CONTROLLED BY THE NATIONAL WEATHER SERVICE.
    USE DATA WITH CAUTION...ESPECIALLY DEWPOINT AND RELATIVE
    HUMIDITY OBSERVATIONS.

INZ001>003-010>013-019-020-191100-
NORTHWEST INDIANA

CITY           SKY/WX    TMP DP  RH WIND       PRES   REMARKS
GARY /AIRPORT/ MOCLDY    37  34  87 N17       30.09R WCI  28
KNOX *+        CLOUDY    34  32  93 N12       30.05R WCI  25
LA PORTE +     MOCLDY    33  32  94 N15       30.06R WCI  23
MICHIGAN CITY+ CLOUDY    34  34 100 N6        30.08R WCI  29
MONTICELLO +   CLOUDY    34  33  95 N15       30.03R WCI  24
RENSSELAER +   CLOUDY    34  32  93 N13       30.07R WCI  25
VALPARAISO     CLOUDY    36  33  89 N7        30.07R WCI  30

$$

LMZ046-743>745-191100-
SOUTHERN LAKE MICHIGAN

STATION/POSITION TIME  TEMP    WIND        PRES    WAVE
                       AIR SEA DIR/SP/G            HT
                 (UTC) (F)     (DEG/KT/KT) (MB)    (FT)
BURNS HARBOR     0940   37      10/ 14/ 18 1018.6R
MICHIGAN CITY    0940   36     350/ 18/ 19   N/A

$$

INZ004-005-014>016-021>024-191100-
NORTH CENTRAL INDIANA

CITY           SKY/WX    TMP DP  RH WIND       PRES   REMARKS
LOGANSPORT +   CLOUDY    34  32  93 N14       30.03R WCI  24
PERU/GRISSOM   CLOUDY    33  33 100 N10       30.00R WCI  25
ROCHESTER +    FLURRIES  36  32  87 N9        30.03R WCI  29
SOUTH BEND     CLOUDY    32  31  96 N10       30.06R WCI  24
WARSAW +       CLOUDY    32  32 100 N10       30.02R WCI  24

$$

INZ006>009-017-018-025>027-191100-
NORTHEAST INDIANA

CITY           SKY/WX    TMP DP  RH WIND       PRES   REMARKS
ANGOLA *+      CLOUDY    32  30  93 N7        29.99R WCI  26
AUBURN +       FLURRIES  32  32 100 N10       29.99R WCI  24
FORT WAYNE     FLURRIES  33  31  92 N12       29.99R WCI  24
HUNTINGTON +   MIX PCPN  32  31  98 N9        29.99R WCI  24
KENDALLVILLE + CLOUDY    32  31  96 N10G16    29.99R WCI  24

$$

INZ028-029-035-036-043>045-051>053-191100-
WEST CENTRAL INDIANA

CITY           SKY/WX    TMP DP  RH WIND       PRES   REMARKS
CRAWFORDSVL +  CLOUDY    32  32 100 W14       30.04R WCI  22
GREENCASTLE +  CLOUDY    34  28  80 W10G16    30.05R WCI  26
LAFAYETTE      CLOUDY    34  33  96 N12       30.05R WCI  25
TERRE HAUTE    CLOUDY    35  28  75 NW15G23   30.08R WCI  25

$$

INZ030>032-037>040-046>048-054>057-064-065-191100-
CENTRAL INDIANA

CITY           SKY/WX    TMP DP  RH WIND       PRES   REMARKS
FRANKFORT +    LGT SNOW  36  34  93 NW12      30.02R WCI  27
GREENWOOD *+   CLOUDY    34  30  83 W10G16    30.01R WCI  26
INDIANAPOLIS   CLOUDY    35  30  82 NW18G25   30.02R WCI  24
-EAGLE CREEK   CLOUDY    35  30  82 NW16G25   30.01R WCI  25
KOKOMO +       MIX PCPN  33  32  96 N12       30.00R WCI  24
MARION +       LGT SNOW  32  32  99 N6        29.98R WCI  27
MT COMFORT *+  CLOUDY    34  34 100 NW16      30.00R WCI  23
SHELBYVILLE    CLOUDY    37  28  70 W18G24    29.99R WCI  27
ZIONSVILLE +   LGT SNOW  32  32  99 W10G17    30.01R WCI  24

$$

INZ033-034-041-042-049-050-058-059-191100-
EAST CENTRAL INDIANA

CITY           SKY/WX    TMP DP  RH WIND       PRES   REMARKS
MUNCIE         LGT SNOW  35  32  88 NW16      29.96R FOG     WCI  25
RICHMOND +     LGT SNOW  32  32 100 W18G26    29.96R WCI  20

$$

INZ060-061-067>069-081>083-085>088-191100-
SOUTHWEST INDIANA

CITY           SKY/WX    TMP DP  RH WIND       PRES   REMARKS
EVANSVILLE     CLOUDY    39  27  62 NW8       30.13R WCI  33
HUNTINGBURG +  CLOUDY    37  27  67 NW15      30.10R WCI  28
WASHINGTON +   CLOUDY    36  27  71 NW16G23   30.10R WCI  26

$$

INZ062-063-066-070>080-084-089>092-191100-
SOUTH CENTRAL AND SOUTHEAST INDIANA

CITY           SKY/WX    TMP DP  RH WIND       PRES   REMARKS
BATESVILLE +   CLOUDY    36  28  75 MISG      29.98R
BLOOMINGTON    LGT SNOW  34  31  88 NW9       30.05R FOG     WCI  27
FRENCH LICK *+ CLOUDY    36  27  69 W7        30.07R WCI  30
MADISON *+     CLOUDY    37  28  70 W8G26     30.03R WCI  31
NORTH VERNON + CLOUDY    36  27  69 W12G22    30.02R WCI  27

$$





USA.gov is the U.S. government's official web portal to all federal, state and local government web resources and services.